DECAYED

CZ-2C R/B, 44452 (Decayed)

Orbit data source: Space-Track

CZ-2C R/B, 44452 was space debris in LEO originally from a launch on Fri, 26 Jul 2019 UTC launched from the Xichang Space Center, China (XSC). Debris objects in space refer to the collection of defunct objects orbiting the Earth. Examples of debris include non-operational satellites, rocket bodies, and fragments generated from explosions, collisions, or faulty payload assembly.

Not visible in the next 10 days
Identifier
44452, 2019-045D
Orbit
Decayed
Country
Flag of CNCN / PRC
Related business
Manufacturer
CALT
Mission
Decayed spacecraft
Bus & Motor
CZ-2 STAGE 2, Unknown motor
Mass
~3,800 kg wet, ~3,800 kg dry
Launch date (UTC)
2019-07-26 (7 years ago)
Launch vehicle
Unknown
Launch site
Xichang Space Center, China (XSC)
Object type
Payload
Rocket body
Debris
Shape & HBR
Cyl, 3.7 m
Radar Cross Section
23.715 m², Large (>1 m²)

Expand to show TLE details & history
Last TLE update: 11 months ago

TLE from 11 months ago
0 CZ-2C R/B
1 44452U 19045D   25205.17177083  .10693964  13102-5  47572-3 0  9994
2 44452  34.9346 169.7970 0002532 250.5493 290.3427 16.43500765334553
Epoch: 2025-07-24T04:07Z
TLE epoch observation values (Epoch: 2025-07-24T04:07:20.999Z)
Latitude
-0.54145°
Longitude
-13.4107°
Altitude
154.847 km
Speed
7.816 km/s
True Right ascension
23h 22m 16s
True Declination
0° 32' 16"
Sunlit
Object was in full shadow at epoch
Visualization orbit readout
Latitude
Unknown
Longitude
Unknown
Altitude
Unknown
Speed
Unknown
Apparent Right ascension
Unknown
Apparent Declination
Unknown
Sunlit
N/A
Visualization observer readout
Local Sidereal Time
21:28:03
Azimuth
Unknown
Elevation
Unknown
Doppler factor
Unknown
Orbital elements
Apogee altitude
161.592 km
Perigee altitude
158.281 km
Semi-major axis
6,538.073 km
Eccentricity
0.00025
Inclination
34.9346°
RAAN
169.797°
Arg. of periapsis
250.5493°
True anomaly
290.31549°
Mean anomaly
290.3427°
Eccentric anomaly
290.3291°
Mean motion
4.10552 °/min
Orbital period
87.69 mins
BSTAR
0.00047572
Loading maneuver chart data...
Computing Atmospheric mass density...
Loading historical data...
Loading historical data...
Loading historical data...
Loading historical data...
Loading historical data...
Loading historical data...
Loading historical data...
Other satellites on launch #45 in the year 2019 (2019-07-26 UTC)

Documentation

Showing up to 5 results
|